Wetterdaten: Dienstag, 11.05.2010
Datum Zeit Temp. A. Feuchte A. Luftdruck Regen Wind Richtung Richtung Sonnenschein UV Solar Windben
11.05.2010 00:00 8,0 C 74 % 1009,9 hPa 0,0 mm 0,0 km/h (0 Bft) N 360 0 min 0 UV-I 0 W/m 4,8 km/h (1 Bft)
11.05.2010 00:10 8,0 C 75 % 1009,9 hPa 0,0 mm 1,6 km/h (1 Bft) N 360 0 min 0 UV-I 0 W/m 6,4 km/h (2 Bft)
11.05.2010 00:20 7,9 C 75 % 1009,9 hPa 0,0 mm 0,0 km/h (0 Bft) N 360 0 min 0 UV-I 0 W/m 4,8 km/h (1 Bft)
11.05.2010 00:30 7,8 C 76 % 1009,9 hPa 0,0 mm 0,0 km/h (0 Bft) N 360 0 min 0 UV-I 0 W/m 6,4 km/h (2 Bft)
11.05.2010 00:40 7,8 C 76 % 1009,8 hPa 0,0 mm 0,0 km/h (0 Bft) N 360 0 min 0 UV-I 0 W/m 4,8 km/h (1 Bft)
11.05.2010 00:50 7,8 C 76 % 1009,8 hPa 0,0 mm 0,0 km/h (0 Bft) N 360 0 min 0 UV-I 0 W/m 4,8 km/h (1 Bft)
11.05.2010 01:00 7,8 C 77 % 1009,8 hPa 0,0 mm 0,0 km/h (0 Bft) N 360 0 min 0 UV-I 0 W/m 6,4 km/h (2 Bft)
11.05.2010 01:10 7,8 C 77 % 1009,8 hPa 0,0 mm 1,6 km/h (1 Bft) N 360 0 min 0 UV-I 0 W/m 4,8 km/h (1 Bft)
11.05.2010 01:20 7,7 C 77 % 1009,8 hPa 0,0 mm 0,0 km/h (0 Bft) N 360 0 min 0 UV-I 0 W/m 3,2 km/h (1 Bft)
11.05.2010 01:30 7,7 C 77 % 1009,9 hPa 0,0 mm 0,0 km/h (0 Bft) N 360 0 min 0 UV-I 0 W/m 3,2 km/h (1 Bft)
11.05.2010 01:40 7,7 C 77 % 1009,9 hPa 0,0 mm 0,0 km/h (0 Bft) N 360 0 min 0 UV-I 0 W/m 3,2 km/h (1 Bft)
11.05.2010 01:50 7,7 C 77 % 1009,9 hPa 0,0 mm 0,0 km/h (0 Bft) N 360 0 min 0 UV-I 0 W/m 4,8 km/h (1 Bft)
11.05.2010 02:00 7,7 C 77 % 1009,9 hPa 0,0 mm 0,0 km/h (0 Bft) N 360 0 min 0 UV-I 0 W/m 1,6 km/h (1 Bft)
11.05.2010 02:10 7,6 C 77 % 1009,9 hPa 0,0 mm 0,0 km/h (0 Bft) N 360 0 min 0 UV-I 0 W/m 4,8 km/h (1 Bft)
11.05.2010 02:20 7,6 C 78 % 1009,8 hPa 0,0 mm 0,0 km/h (0 Bft) N 360 0 min 0 UV-I 0 W/m 4,8 km/h (1 Bft)
11.05.2010 02:30 7,6 C 78 % 1009,7 hPa 0,0 mm 1,6 km/h (1 Bft) N 360 0 min 0 UV-I 0 W/m 6,4 km/h (2 Bft)
11.05.2010 02:40 7,5 C 79 % 1009,7 hPa 0,0 mm 1,6 km/h (1 Bft) N 360 0 min 0 UV-I 0 W/m 6,4 km/h (2 Bft)
11.05.2010 02:50 7,4 C 79 % 1009,6 hPa 0,0 mm 1,6 km/h (1 Bft) N 360 0 min 0 UV-I 0 W/m 6,4 km/h (2 Bft)
11.05.2010 03:00 7,4 C 79 % 1009,5 hPa 0,0 mm 1,6 km/h (1 Bft) N 360 0 min 0 UV-I 0 W/m 4,8 km/h (1 Bft)
11.05.2010 03:10 7,3 C 79 % 1009,5 hPa 0,0 mm 1,6 km/h (1 Bft) N 360 0 min 0 UV-I 0 W/m 6,4 km/h (2 Bft)
11.05.2010 03:20 7,3 C 79 % 1009,5 hPa 0,0 mm 1,6 km/h (1 Bft) N 360 0 min 0 UV-I 0 W/m 4,8 km/h (1 Bft)
11.05.2010 03:30 7,3 C 79 % 1009,5 hPa 0,0 mm 0,0 km/h (0 Bft) N 360 0 min 0 UV-I 0 W/m 4,8 km/h (1 Bft)
11.05.2010 03:40 7,3 C 80 % 1009,5 hPa 0,0 mm 1,6 km/h (1 Bft) N 360 0 min 0 UV-I 0 W/m 4,8 km/h (1 Bft)
11.05.2010 03:50 7,3 C 80 % 1009,6 hPa 0,0 mm 0,0 km/h (0 Bft) N 360 0 min 0 UV-I 0 W/m 4,8 km/h (1 Bft)
11.05.2010 04:00 7,3 C 80 % 1009,5 hPa 0,0 mm 0,0 km/h (0 Bft) N 360 0 min 0 UV-I 0 W/m 4,8 km/h (1 Bft)
11.05.2010 04:10 7,3 C 80 % 1009,4 hPa 0,0 mm 1,6 km/h (1 Bft) N 360 0 min 0 UV-I 0 W/m 6,4 km/h (2 Bft)
11.05.2010 04:20 7,2 C 80 % 1009,3 hPa 0,0 mm 1,6 km/h (1 Bft) N 360 0 min 0 UV-I 0 W/m 6,4 km/h (2 Bft)
11.05.2010 04:30 7,2 C 81 % 1009,2 hPa 0,0 mm 1,6 km/h (1 Bft) N 360 0 min 0 UV-I 0 W/m 4,8 km/h (1 Bft)
11.05.2010 04:40 7,2 C 80 % 1009,2 hPa 0,0 mm 1,6 km/h (1 Bft) N 360 0 min 0 UV-I 0 W/m 4,8 km/h (1 Bft)
11.05.2010 04:50 7,2 C 80 % 1009,2 hPa 0,0 mm 1,6 km/h (1 Bft) N 360 0 min 0 UV-I 0 W/m 6,4 km/h (2 Bft)
11.05.2010 05:00 7,2 C 80 % 1009,1 hPa 0,0 mm 0,0 km/h (0 Bft) N 360 0 min 0 UV-I 0 W/m 4,8 km/h (1 Bft)
11.05.2010 05:10 7,2 C 80 % 1009,0 hPa 0,0 mm 1,6 km/h (1 Bft) N 360 0 min 0 UV-I 0 W/m 4,8 km/h (1 Bft)
11.05.2010 05:20 7,2 C 80 % 1009,0 hPa 0,0 mm 1,6 km/h (1 Bft) N 360 0 min 0 UV-I 0 W/m 4,8 km/h (1 Bft)
11.05.2010 05:30 7,2 C 80 % 1009,0 hPa 0,0 mm 0,0 km/h (0 Bft) N 360 0 min 0 UV-I 0 W/m 4,8 km/h (1 Bft)
11.05.2010 05:40 7,1 C 80 % 1008,9 hPa 0,0 mm 1,6 km/h (1 Bft) N 360 0 min 0 UV-I 0 W/m 4,8 km/h (1 Bft)
11.05.2010 05:50 7,1 C 81 % 1008,9 hPa 0,0 mm 0,0 km/h (0 Bft) N 360 0 min 0 UV-I 0 W/m 3,2 km/h (1 Bft)
11.05.2010 06:00 7,1 C 81 % 1008,8 hPa 0,0 mm 0,0 km/h (0 Bft) N 360 0 min 0 UV-I 7 W/m 4,8 km/h (1 Bft)
11.05.2010 06:10 7,0 C 81 % 1008,8 hPa 0,0 mm 0,0 km/h (0 Bft) N 360 0 min 0 UV-I 14 W/m 3,2 km/h (1 Bft)
11.05.2010 06:20 7,0 C 80 % 1008,8 hPa 0,0 mm 1,6 km/h (1 Bft) N 360 0 min 0 UV-I 21 W/m 6,4 km/h (2 Bft)
11.05.2010 06:30 6,9 C 80 % 1008,7 hPa 0,0 mm 1,6 km/h (1 Bft) N 360 0 min 0 UV-I 44 W/m 4,8 km/h (1 Bft)
11.05.2010 06:40 6,9 C 80 % 1008,7 hPa 0,0 mm 0,0 km/h (0 Bft) N 360 0 min 0 UV-I 72 W/m 4,8 km/h (1 Bft)
11.05.2010 06:50 7,1 C 80 % 1009,0 hPa 0,0 mm 0,0 km/h (0 Bft) N 360 0 min 0 UV-I 77 W/m 4,8 km/h (1 Bft)
11.05.2010 07:00 7,3 C 80 % 1009,1 hPa 0,0 mm 0,0 km/h (0 Bft) N 360 0 min 0 UV-I 51 W/m 1,6 km/h (1 Bft)
11.05.2010 07:10 7,4 C 79 % 1009,0 hPa 0,0 mm 0,0 km/h (0 Bft) N 360 0 min 0 UV-I 58 W/m 3,2 km/h (1 Bft)
11.05.2010 07:20 7,5 C 79 % 1009,0 hPa 0,0 mm 0,0 km/h (0 Bft) N 360 0 min 0 UV-I 70 W/m 3,2 km/h (1 Bft)
11.05.2010 07:30 7,7 C 78 % 1009,0 hPa 0,0 mm 1,6 km/h (1 Bft) N 360 0 min 0 UV-I 95 W/m 6,4 km/h (2 Bft)
11.05.2010 07:40 7,8 C 77 % 1008,9 hPa 0,0 mm 1,6 km/h (1 Bft) N 360 0 min 0 UV-I 100 W/m 4,8 km/h (1 Bft)
11.05.2010 07:50 8,0 C 76 % 1009,0 hPa 0,0 mm 1,6 km/h (1 Bft) N 360 0 min 0 UV-I 100 W/m 9,7 km/h (2 Bft)
11.05.2010 08:00 8,1 C 77 % 1009,0 hPa 0,0 mm 2,0 km/h (1 Bft) N-NO 19 0 min 1 UV-I 97 W/m 4,8 km/h (1 Bft)
11.05.2010 08:10 8,2 C 76 % 1009,1 hPa 0,0 mm 1,6 km/h (1 Bft) N-NO 22 0 min 1 UV-I 107 W/m 4,8 km/h (1 Bft)
11.05.2010 08:20 8,3 C 77 % 1009,1 hPa 0,0 mm 1,6 km/h (1 Bft) N-NO 22 0 min 1 UV-I 105 W/m 8,0 km/h (2 Bft)
11.05.2010 08:30 8,3 C 76 % 1008,8 hPa 0,0 mm 1,6 km/h (1 Bft) N-NO 22 0 min 1 UV-I 93 W/m 6,4 km/h (2 Bft)
11.05.2010 08:40 8,3 C 76 % 1008,8 hPa 0,0 mm 1,6 km/h (1 Bft) N-NO 22 0 min 1 UV-I 90 W/m 8,0 km/h (2 Bft)
11.05.2010 08:50 8,4 C 76 % 1008,9 hPa 0,0 mm 1,6 km/h (1 Bft) N-NO 22 0 min 0 UV-I 76 W/m 6,4 km/h (2 Bft)
11.05.2010 09:00 8,3 C 76 % 1008,9 hPa 0,0 mm 1,6 km/h (1 Bft) N-NO 22 0 min 0 UV-I 44 W/m 6,4 km/h (2 Bft)
11.05.2010 09:10 8,2 C 77 % 1008,9 hPa 0,0 mm 1,6 km/h (1 Bft) N-NO 22 0 min 0 UV-I 42 W/m 6,4 km/h (2 Bft)
11.05.2010 09:20 8,2 C 78 % 1008,9 hPa 0,0 mm 3,2 km/h (1 Bft) N-NO 22 0 min 0 UV-I 60 W/m 8,0 km/h (2 Bft)
11.05.2010 09:30 8,3 C 78 % 1008,9 hPa 0,0 mm 1,6 km/h (1 Bft) N-NO 22 0 min 1 UV-I 102 W/m 6,4 km/h (2 Bft)
11.05.2010 09:40 8,5 C 78 % 1008,8 hPa 0,0 mm 1,6 km/h (1 Bft) N-NO 22 0 min 1 UV-I 153 W/m 6,4 km/h (2 Bft)
11.05.2010 09:50 8,8 C 77 % 1008,8 hPa 0,0 mm 1,6 km/h (1 Bft) NO 45 0 min 1 UV-I 246 W/m 8,0 km/h (2 Bft)
11.05.2010 10:00 9,1 C 77 % 1008,8 hPa 0,0 mm 3,2 km/h (1 Bft) NO 45 0 min 1 UV-I 223 W/m 11,3 km/h (2 Bft)
11.05.2010 10:10 9,5 C 75 % 1008,6 hPa 0,0 mm 3,2 km/h (1 Bft) O-NO 67 0 min 2 UV-I 246 W/m 9,7 km/h (2 Bft)
11.05.2010 10:20 9,7 C 74 % 1008,6 hPa 0,0 mm 4,8 km/h (1 Bft) O-NO 67 10 min 2 UV-I 364 W/m 14,5 km/h (3 Bft)
11.05.2010 10:30 9,9 C 73 % 1008,7 hPa 0,0 mm 4,8 km/h (1 Bft) N-NO 22 10 min 2 UV-I 387 W/m 14,5 km/h (3 Bft)
11.05.2010 10:40 10,2 C 73 % 1008,5 hPa 0,0 mm 4,8 km/h (1 Bft) N-NO 22 10 min 3 UV-I 582 W/m 11,3 km/h (2 Bft)
11.05.2010 10:50 10,7 C 71 % 1008,4 hPa 0,0 mm 4,8 km/h (1 Bft) N-NO 22 10 min 3 UV-I 643 W/m 11,3 km/h (2 Bft)
11.05.2010 11:00 10,8 C 72 % 1008,3 hPa 0,0 mm 4,8 km/h (1 Bft) NO 45 10 min 3 UV-I 506 W/m 14,5 km/h (3 Bft)
11.05.2010 11:10 11,4 C 70 % 1008,1 hPa 0,0 mm 3,2 km/h (1 Bft) O-NO 67 10 min 3 UV-I 410 W/m 11,3 km/h (2 Bft)
11.05.2010 11:20 11,7 C 70 % 1008,1 hPa 0,0 mm 3,2 km/h (1 Bft) O-NO 67 10 min 4 UV-I 617 W/m 11,3 km/h (2 Bft)
11.05.2010 11:30 12,3 C 69 % 1008,0 hPa 0,0 mm 3,2 km/h (1 Bft) N-NO 22 10 min 4 UV-I 596 W/m 11,3 km/h (2 Bft)
11.05.2010 11:40 12,9 C 68 % 1007,9 hPa 0,0 mm 4,8 km/h (1 Bft) O 90 10 min 5 UV-I 527 W/m 17,7 km/h (3 Bft)
11.05.2010 11:50 12,7 C 69 % 1007,7 hPa 0,0 mm 3,2 km/h (1 Bft) O-NO 67 10 min 5 UV-I 731 W/m 11,3 km/h (2 Bft)
11.05.2010 12:00 13,2 C 66 % 1007,7 hPa 0,0 mm 4,8 km/h (1 Bft) O-NO 67 10 min 6 UV-I 979 W/m 16,1 km/h (3 Bft)
11.05.2010 12:10 13,4 C 66 % 1007,7 hPa 0,0 mm 6,4 km/h (2 Bft) O 90 10 min 4 UV-I 480 W/m 17,7 km/h (3 Bft)
11.05.2010 12:20 13,1 C 67 % 1007,6 hPa 0,0 mm 4,8 km/h (1 Bft) NO 45 10 min 3 UV-I 503 W/m 11,3 km/h (2 Bft)
11.05.2010 12:30 13,0 C 67 % 1007,5 hPa 0,0 mm 3,2 km/h (1 Bft) O-NO 67 0 min 3 UV-I 429 W/m 16,1 km/h (3 Bft)
11.05.2010 12:40 13,2 C 67 % 1007,5 hPa 0,0 mm 4,8 km/h (1 Bft) N-NO 22 0 min 3 UV-I 357 W/m 14,5 km/h (3 Bft)
11.05.2010 12:50 13,1 C 68 % 1007,5 hPa 0,0 mm 6,4 km/h (2 Bft) O-NO 67 0 min 2 UV-I 288 W/m 22,5 km/h (4 Bft)
11.05.2010 13:00 12,8 C 68 % 1007,3 hPa 0,0 mm 4,8 km/h (1 Bft) O 90 0 min 2 UV-I 237 W/m 16,1 km/h (3 Bft)
11.05.2010 13:10 12,7 C 69 % 1007,4 hPa 0,0 mm 4,8 km/h (1 Bft) O 90 0 min 2 UV-I 220 W/m 11,3 km/h (2 Bft)
11.05.2010 13:20 12,6 C 70 % 1007,4 hPa 0,0 mm 4,8 km/h (1 Bft) O-NO 67 0 min 2 UV-I 241 W/m 16,1 km/h (3 Bft)
11.05.2010 13:30 12,6 C 70 % 1007,2 hPa 0,0 mm 4,8 km/h (1 Bft) O 90 0 min 2 UV-I 239 W/m 14,5 km/h (3 Bft)
11.05.2010 13:40 12,4 C 70 % 1007,2 hPa 0,0 mm 4,8 km/h (1 Bft) O 90 0 min 2 UV-I 220 W/m 14,5 km/h (3 Bft)
11.05.2010 13:50 12,3 C 71 % 1007,2 hPa 0,0 mm 3,2 km/h (1 Bft) O-NO 67 0 min 1 UV-I 148 W/m 9,7 km/h (2 Bft)
11.05.2010 14:00 12,2 C 72 % 1007,1 hPa 0,0 mm 3,2 km/h (1 Bft) O-NO 67 0 min 2 UV-I 160 W/m 8,0 km/h (2 Bft)
11.05.2010 14:10 12,3 C 72 % 1007,1 hPa 0,0 mm 3,2 km/h (1 Bft) NO 45 0 min 1 UV-I 151 W/m 9,7 km/h (2 Bft)
11.05.2010 14:20 12,2 C 72 % 1007,1 hPa 0,0 mm 1,6 km/h (1 Bft) NO 45 0 min 2 UV-I 172 W/m 6,4 km/h (2 Bft)
11.05.2010 14:30 12,3 C 73 % 1007,0 hPa 0,0 mm 3,2 km/h (1 Bft) NO 45 0 min 2 UV-I 186 W/m 9,7 km/h (2 Bft)
11.05.2010 14:40 12,4 C 72 % 1006,9 hPa 0,0 mm 3,2 km/h (1 Bft) NO 45 0 min 1 UV-I 156 W/m 11,3 km/h (2 Bft)
11.05.2010 14:50 12,3 C 72 % 1006,9 hPa 0,0 mm 4,8 km/h (1 Bft) N-NO 22 0 min 1 UV-I 146 W/m 16,1 km/h (3 Bft)
11.05.2010 15:00 12,1 C 74 % 1006,7 hPa 0,0 mm 3,2 km/h (1 Bft) N-NO 22 0 min 1 UV-I 118 W/m 16,1 km/h (3 Bft)
11.05.2010 15:10 12,2 C 73 % 1006,6 hPa 0,0 mm 4,8 km/h (1 Bft) NO 45 0 min 1 UV-I 130 W/m 11,3 km/h (2 Bft)
11.05.2010 15:20 12,3 C 73 % 1006,5 hPa 0,0 mm 4,8 km/h (1 Bft) O-NO 67 0 min 1 UV-I 155 W/m 16,1 km/h (3 Bft)
11.05.2010 15:30 12,2 C 73 % 1006,3 hPa 0,0 mm 4,8 km/h (1 Bft) N-NO 22 0 min 1 UV-I 118 W/m 16,1 km/h (3 Bft)
11.05.2010 15:40 12,1 C 73 % 1006,3 hPa 0,0 mm 4,8 km/h (1 Bft) NO 45 0 min 1 UV-I 132 W/m 17,7 km/h (3 Bft)
11.05.2010 15:50 12,1 C 74 % 1006,3 hPa 0,0 mm 3,2 km/h (1 Bft) NO 45 0 min 1 UV-I 116 W/m 16,1 km/h (3 Bft)
11.05.2010 16:00 12,2 C 74 % 1006,3 hPa 0,0 mm 3,4 km/h (1 Bft) O-NO 67 0 min 1 UV-I 94 W/m 11,3 km/h (2 Bft)
11.05.2010 16:10 12,1 C 75 % 1006,2 hPa 0,0 mm 4,8 km/h (1 Bft) NO 45 0 min 1 UV-I 107 W/m 19,3 km/h (3 Bft)
11.05.2010 16:20 12,0 C 75 % 1006,3 hPa 0,0 mm 4,8 km/h (1 Bft) O-NO 67 0 min 1 UV-I 97 W/m 16,1 km/h (3 Bft)
11.05.2010 16:30 11,9 C 76 % 1006,3 hPa 0,0 mm 1,6 km/h (1 Bft) NO 45 0 min 1 UV-I 97 W/m 8,0 km/h (2 Bft)
11.05.2010 16:40 11,9 C 76 % 1006,1 hPa 0,0 mm 3,2 km/h (1 Bft) NO 45 0 min 1 UV-I 83 W/m 9,7 km/h (2 Bft)
11.05.2010 16:50 11,8 C 76 % 1006,1 hPa 0,0 mm 4,8 km/h (1 Bft) NO 45 0 min 1 UV-I 79 W/m 16,1 km/h (3 Bft)
11.05.2010 17:00 11,7 C 76 % 1006,2 hPa 0,0 mm 4,8 km/h (1 Bft) O-NO 67 0 min 1 UV-I 76 W/m 17,7 km/h (3 Bft)
11.05.2010 17:10 11,7 C 77 % 1006,1 hPa 0,0 mm 3,2 km/h (1 Bft) NO 45 0 min 0 UV-I 53 W/m 12,9 km/h (3 Bft)
11.05.2010 17:20 11,6 C 76 % 1006,1 hPa 0,0 mm 4,8 km/h (1 Bft) NO 45 0 min 1 UV-I 76 W/m 16,1 km/h (3 Bft)
11.05.2010 17:30 11,5 C 77 % 1006,0 hPa 0,0 mm 4,8 km/h (1 Bft) O-NO 67 0 min 1 UV-I 93 W/m 14,5 km/h (3 Bft)
11.05.2010 17:40 11,5 C 77 % 1005,9 hPa 0,0 mm 6,4 km/h (2 Bft) O-NO 67 0 min 1 UV-I 74 W/m 16,1 km/h (3 Bft)
11.05.2010 17:50 11,5 C 78 % 1005,8 hPa 0,0 mm 3,2 km/h (1 Bft) O-NO 67 0 min 1 UV-I 70 W/m 9,7 km/h (2 Bft)
11.05.2010 18:00 11,4 C 78 % 1005,6 hPa 0,0 mm 4,8 km/h (1 Bft) O-NO 67 0 min 1 UV-I 162 W/m 14,5 km/h (3 Bft)
11.05.2010 18:10 11,5 C 78 % 1005,6 hPa 0,0 mm 6,4 km/h (2 Bft) NO 45 0 min 1 UV-I 114 W/m 20,9 km/h (4 Bft)
11.05.2010 18:20 11,5 C 78 % 1005,5 hPa 0,0 mm 4,8 km/h (1 Bft) O-NO 67 0 min 1 UV-I 142 W/m 16,1 km/h (3 Bft)
11.05.2010 18:30 11,6 C 78 % 1005,3 hPa 0,0 mm 4,8 km/h (1 Bft) O-NO 67 0 min 1 UV-I 107 W/m 16,1 km/h (3 Bft)
11.05.2010 18:40 11,6 C 78 % 1005,2 hPa 0,0 mm 4,8 km/h (1 Bft) NO 45 0 min 1 UV-I 111 W/m 19,3 km/h (3 Bft)
11.05.2010 18:50 11,6 C 79 % 1005,1 hPa 0,0 mm 3,2 km/h (1 Bft) O-NO 67 0 min 1 UV-I 86 W/m 14,5 km/h (3 Bft)
11.05.2010 19:00 11,6 C 79 % 1005,2 hPa 0,0 mm 4,8 km/h (1 Bft) O-NO 67 0 min 0 UV-I 47 W/m 14,5 km/h (3 Bft)
11.05.2010 19:10 11,4 C 79 % 1005,1 hPa 0,0 mm 3,2 km/h (1 Bft) O-NO 67 0 min 0 UV-I 28 W/m 11,3 km/h (2 Bft)
11.05.2010 19:20 11,3 C 80 % 1005,1 hPa 0,0 mm 4,8 km/h (1 Bft) NO 45 0 min 0 UV-I 39 W/m 16,1 km/h (3 Bft)
11.05.2010 19:30 11,4 C 80 % 1005,2 hPa 0,0 mm 1,6 km/h (1 Bft) O-NO 67 0 min 0 UV-I 44 W/m 9,7 km/h (2 Bft)
11.05.2010 19:40 11,4 C 80 % 1005,4 hPa 0,0 mm 1,6 km/h (1 Bft) O-NO 67 0 min 0 UV-I 46 W/m 8,0 km/h (2 Bft)
11.05.2010 19:50 11,4 C 80 % 1005,4 hPa 0,0 mm 1,6 km/h (1 Bft) N 360 0 min 0 UV-I 39 W/m 11,3 km/h (2 Bft)
11.05.2010 20:00 11,4 C 80 % 1005,4 hPa 0,0 mm 1,6 km/h (1 Bft) N 360 0 min 0 UV-I 23 W/m 11,3 km/h (2 Bft)
11.05.2010 20:10 11,3 C 81 % 1005,3 hPa 0,0 mm 0,0 km/h (0 Bft) NO 45 0 min 0 UV-I 12 W/m 4,8 km/h (1 Bft)
11.05.2010 20:20 11,3 C 80 % 1005,3 hPa 0,0 mm 1,6 km/h (1 Bft) NO 45 0 min 0 UV-I 11 W/m 8,0 km/h (2 Bft)
11.05.2010 20:30 11,3 C 80 % 1005,2 hPa 0,0 mm 1,6 km/h (1 Bft) NO 45 0 min 0 UV-I 9 W/m 6,4 km/h (2 Bft)
11.05.2010 20:40 11,3 C 80 % 1005,1 hPa 0,0 mm 1,6 km/h (1 Bft) NO 45 0 min 0 UV-I 5 W/m 6,4 km/h (2 Bft)
11.05.2010 20:50 11,4 C 80 % 1005,1 hPa 0,0 mm 1,6 km/h (1 Bft) O 90 0 min 0 UV-I 0 W/m 8,0 km/h (2 Bft)
11.05.2010 21:00 11,4 C 79 % 1004,9 hPa 0,0 mm 3,2 km/h (1 Bft) O-NO 67 0 min 0 UV-I 0 W/m 9,7 km/h (2 Bft)
11.05.2010 21:10 11,4 C 78 % 1004,7 hPa 0,0 mm 4,8 km/h (1 Bft) O 90 0 min 0 UV-I 0 W/m 16,1 km/h (3 Bft)
11.05.2010 21:20 11,4 C 78 % 1004,7 hPa 0,0 mm 4,8 km/h (1 Bft) O-NO 67 0 min 0 UV-I 0 W/m 14,5 km/h (3 Bft)
11.05.2010 21:30 11,4 C 78 % 1004,6 hPa 0,0 mm 4,8 km/h (1 Bft) O-NO 67 0 min 0 UV-I 0 W/m 17,7 km/h (3 Bft)
11.05.2010 21:40 11,4 C 78 % 1004,6 hPa 0,0 mm 4,8 km/h (1 Bft) O-NO 67 0 min 0 UV-I 0 W/m 16,1 km/h (3 Bft)
11.05.2010 21:50 11,4 C 78 % 1004,3 hPa 0,0 mm 4,8 km/h (1 Bft) O-NO 67 0 min 0 UV-I 0 W/m 16,1 km/h (3 Bft)
11.05.2010 22:00 11,3 C 78 % 1004,2 hPa 0,0 mm 4,8 km/h (1 Bft) O-NO 67 0 min 0 UV-I 0 W/m 11,3 km/h (2 Bft)
11.05.2010 22:10 11,3 C 78 % 1004,0 hPa 0,0 mm 3,2 km/h (1 Bft) O-NO 67 0 min 0 UV-I 0 W/m 14,5 km/h (3 Bft)
11.05.2010 22:20 11,2 C 79 % 1003,9 hPa 0,0 mm 4,8 km/h (1 Bft) O-NO 67 0 min 0 UV-I 0 W/m 14,5 km/h (3 Bft)
11.05.2010 22:30 11,2 C 79 % 1003,9 hPa 0,0 mm 4,8 km/h (1 Bft) O 90 0 min 0 UV-I 0 W/m 17,7 km/h (3 Bft)
11.05.2010 22:40 11,2 C 79 % 1003,9 hPa 0,0 mm 3,2 km/h (1 Bft) O-NO 67 0 min 0 UV-I 0 W/m 14,5 km/h (3 Bft)
11.05.2010 22:50 11,2 C 78 % 1003,8 hPa 0,0 mm 4,8 km/h (1 Bft) O-NO 67 0 min 0 UV-I 0 W/m 16,1 km/h (3 Bft)
11.05.2010 23:00 11,2 C 79 % 1003,8 hPa 0,0 mm 4,8 km/h (1 Bft) O 90 0 min 0 UV-I 0 W/m 9,7 km/h (2 Bft)
11.05.2010 23:10 11,2 C 78 % 1003,7 hPa 0,0 mm 3,2 km/h (1 Bft) O-NO 67 0 min 0 UV-I 0 W/m 9,7 km/h (2 Bft)
11.05.2010 23:20 11,2 C 78 % 1003,7 hPa 0,0 mm 3,2 km/h (1 Bft) O-NO 67 0 min 0 UV-I 0 W/m 11,3 km/h (2 Bft)
11.05.2010 23:30 11,2 C 79 % 1003,4 hPa 0,0 mm 3,2 km/h (1 Bft) O 90 0 min 0 UV-I 0 W/m 9,7 km/h (2 Bft)
11.05.2010 23:40 11,1 C 79 % 1003,3 hPa 0,0 mm 3,2 km/h (1 Bft) O-NO 67 0 min 0 UV-I 0 W/m 14,5 km/h (3 Bft)
11.05.2010 23:50 11,1 C 79 % 1003,4 hPa 0,0 mm 4,8 km/h (1 Bft) O-NO 67 0 min 0 UV-I 0 W/m 14,5 km/h (3 Bft)
_ Min-Zeit 06:20 12:00 23:40 - 00:00 - - - - - 02:00
Minimum _ 6,9 C 66 % 1003,3 hPa - 0,0 km/h (0 Bft) - - - - - 1,6 km/h (1 Bft)
_ Max-Zeit 12:00 04:30 00:00 00:00 12:10 - - 10:20 12:00 12:00 12:50
Maximum _ 13,7 C 81 % 1009,9 hPa 0,0 mm 6,4 km/h
O (2 Bft)
- - 10 min 6 UV-I 979 W/m 22,5 km/h
O (4 Bft)
Durchschnitt _ 10,0 C 76 % 1007,4 hPa #0,0 mm 2,7 km/h (1 Bft) O-NO - #2:10 h 2 UV-I 178 W/m 10,0 km/h (2 Bft)